Weather History for Dumas, TX

Change the Weather History Date:

Sunday, June 23, 2013

  Actual Average (KBGD) Record (KBGD)
Temperature  
Mean Temperature 83 °F 79 °F  
Max Temperature 97 °F 91 °F 105 °F (2011)
Min Temperature 69 °F 66 °F 52 °F (1989)
Degree Days  
Heating Degree Days 0 0  
Month to date heating degree days 0  
Since 1 June heating degree days 0  
Since 1 July heating degree days 3763  
Cooling Degree Days 18 14  
Month to date cooling degree days 256  
Year to date cooling degree days 453  
Since 1 June cooling degree days 256  
Growing Degree Days 33 (Base 50)    
Moisture  
Dew Point 56 °F    
Average Humidity 42    
Maximum Humidity 64    
Minimum Humidity 18    
Precipitation  
Precipitation 0.00 in 0.10 in 0.96 in (1959)
Month to date precipitation 2.53  
Year to date precipitation 9.58  
Sea Level Pressure  
Sea Level Pressure 29.87 in    
Wind  
Wind Speed 17 mph (South)    
Max Wind Speed 25 mph    
Max Gust Speed 34 mph    
Visibility 10 miles    
Events      
T = Trace of Precipitation, MM = Missing Value Source: NWS Daily Summary

Daily Weather History Graph

Daily Weather History Graph

Search for Another Location

Airport:

Trip Planner

Search our weather history database for the weather conditions in past years. The results will help you decide how hot, cold, wet, or windy it might be!

Date:

Astronomy

Jun. 23, 2013 Rise Set
Actual Time 6:32 AM CDT 9:08 PM CDT
Civil Twilight 6:02 AM CDT 9:38 PM CDT
Nautical Twilight 5:24 AM CDT 10:15 PM CDT
Astronomical Twilight 4:43 AM CDT 10:57 PM CDT
Moon 9:25 PM CDT (6/23) 6:50 AM CDT (6/23)
Length of Visible Light 15h 35m
Length of Day
14h 35m
Full, 100% of the Moon is Illuminated
Jun 23
Full
Jun 29
Last Quarter
Jul 8
New
Jul 15
First Quarter
Jul 22
Full

Hourly Weather History & Observations

Time (CDT) Temp. Heat Index Dew Point Humidity Pressure Visibility Wind Dir Wind Speed Gust Speed Precip Events Conditions
12:15 AM 79.7 °F - 58.6 °F 48% 29.87 in 10.0 mi South 20.7 mph 25.3 mph N/A   Clear
12:35 AM 79.7 °F - 58.5 °F 48% 29.87 in 10.0 mi South 21.9 mph 28.8 mph N/A   Clear
12:55 AM 79.3 °F - 58.3 °F 48% 29.87 in 10.0 mi South 20.7 mph 27.6 mph N/A   Clear
1:15 AM 78.8 °F - 58.3 °F 49% 29.87 in 10.0 mi South 20.7 mph 25.3 mph N/A   Clear
1:35 AM 78.8 °F - 58.3 °F 49% 29.86 in 10.0 mi South 21.9 mph 27.6 mph N/A   Clear
1:55 AM 78.8 °F - 58.5 °F 50% 29.87 in 10.0 mi South 24.2 mph 31.1 mph N/A   Scattered Clouds
2:15 AM 78.1 °F - 58.5 °F 51% 29.87 in 10.0 mi South 24.2 mph 28.8 mph N/A   Mostly Cloudy
2:35 AM 77.9 °F - 58.5 °F 51% 29.86 in 7.0 mi South 24.2 mph 28.8 mph N/A   Overcast
2:55 AM 77.2 °F - 58.5 °F 52% 29.87 in 7.0 mi SSW 18.4 mph 28.8 mph N/A   Overcast
3:15 AM 76.1 °F - 58.5 °F 54% 29.87 in 7.0 mi South 19.6 mph - N/A   Overcast
3:35 AM 75.4 °F - 58.5 °F 56% 29.87 in 7.0 mi SSW 18.4 mph 25.3 mph N/A   Overcast
3:55 AM 74.5 °F - 58.5 °F 57% 29.87 in 7.0 mi South 17.3 mph - N/A   Overcast
4:15 AM 73.6 °F - 58.3 °F 59% 29.88 in 7.0 mi SSW 16.1 mph - N/A   Overcast
4:35 AM 73.2 °F - 58.1 °F 59% 29.88 in 10.0 mi SSW 17.3 mph 20.7 mph N/A   Overcast
4:55 AM 72.5 °F - 57.7 °F 60% 29.88 in 10.0 mi SSW 16.1 mph - N/A   Mostly Cloudy
5:15 AM 72.0 °F - 57.2 °F 60% 29.89 in 10.0 mi SSW 15.0 mph - N/A   Scattered Clouds
5:35 AM 71.2 °F - 57.2 °F 61% 29.89 in 10.0 mi SSW 12.7 mph - N/A   Clear
5:55 AM 70.9 °F - 56.8 °F 61% 29.88 in 10.0 mi South 15.0 mph - N/A   Clear
6:15 AM 70.2 °F - 56.8 °F 63% 29.88 in 10.0 mi SSW 13.8 mph - N/A   Clear
6:35 AM 69.8 °F - 56.8 °F 63% 29.88 in 10.0 mi SSW 17.3 mph - N/A   Clear
6:55 AM 69.4 °F - 56.7 °F 64% 29.90 in 10.0 mi SSW 10.4 mph - N/A   Clear
7:15 AM 69.8 °F - 56.5 °F 63% 29.90 in 10.0 mi SSW 12.7 mph - N/A   Clear
7:35 AM 70.7 °F - 56.8 °F 61% 29.90 in 10.0 mi SSW 12.7 mph - N/A   Clear
7:55 AM 71.6 °F - 57.0 °F 60% 29.89 in 10.0 mi South 15.0 mph 19.6 mph N/A   Clear
8:15 AM 72.7 °F - 57.2 °F 58% 29.90 in 10.0 mi SSW 15.0 mph 21.9 mph N/A   Clear
8:35 AM 73.4 °F - 57.0 °F 56% 29.90 in 10.0 mi SSW 18.4 mph 21.9 mph N/A   Clear
8:55 AM 75.2 °F - 57.2 °F 53% 29.91 in 10.0 mi SW 15.0 mph 20.7 mph N/A   Clear
9:15 AM 75.7 °F - 56.8 °F 52% 29.91 in 10.0 mi SW 18.4 mph 24.2 mph N/A   Clear
9:35 AM 77.2 °F - 57.2 °F 50% 29.91 in 10.0 mi SW 15.0 mph - N/A   Clear
9:55 AM 77.7 °F - 57.0 °F 49% 29.91 in 10.0 mi SW 15.0 mph - N/A   Clear
10:15 AM 79.2 °F - 57.2 °F 47% 29.92 in 10.0 mi SW 12.7 mph - N/A   Clear
10:35 AM 80.8 °F 80.9 °F 57.0 °F 44% 29.91 in 10.0 mi WSW 12.7 mph - N/A   Clear
10:55 AM 82.2 °F 81.6 °F 55.6 °F 40% 29.91 in 10.0 mi WSW 9.2 mph 12.7 mph N/A   Clear
11:15 AM 83.1 °F 82.2 °F 55.0 °F 38% 29.91 in 10.0 mi SW 5.8 mph 9.2 mph N/A   Clear
11:35 AM 84.0 °F 82.5 °F 53.1 °F 34% 29.92 in 10.0 mi WSW 6.9 mph - N/A   Clear
11:55 AM 86.2 °F - 51.3 °F 30% 29.92 in 10.0 mi NW 8.1 mph - N/A   Clear
12:15 PM 86.4 °F - 51.3 °F 30% 29.91 in 10.0 mi North 3.5 mph - N/A   Clear
12:35 PM 86.7 °F - 52.7 °F 31% 29.91 in 10.0 mi North 4.6 mph - N/A   Clear
12:55 PM 88.7 °F - 52.2 °F 29% 29.91 in 10.0 mi NW 8.1 mph - N/A   Clear
1:15 PM 88.9 °F - 51.4 °F 28% 29.90 in 10.0 mi NNW 5.8 mph - N/A   Clear
1:35 PM 90.3 °F - 50.0 °F 25% 29.90 in 10.0 mi NE 4.6 mph - N/A   Clear
1:55 PM 91.2 °F - 49.1 °F 24% 29.89 in 10.0 mi South 3.5 mph - N/A   Clear
2:15 PM 91.0 °F - 47.8 °F 23% 29.89 in 10.0 mi SSE 3.5 mph - N/A   Clear
2:35 PM 92.1 °F - 47.5 °F 22% 29.88 in 10.0 mi Calm Calm - N/A   Clear
2:55 PM 94.1 °F - 46.9 °F 20% 29.87 in 10.0 mi WSW 10.4 mph - N/A   Clear
3:15 PM 94.3 °F - 45.3 °F 19% 29.87 in 10.0 mi East 3.5 mph - N/A   Clear
3:35 PM 95.7 °F - 45.5 °F 18% 29.86 in 10.0 mi SE 4.6 mph - N/A   Clear
3:55 PM 97.2 °F - 46.8 °F 18% 29.86 in 10.0 mi ESE 8.1 mph - N/A   Clear
4:15 PM 96.1 °F - 49.5 °F 20% 29.84 in 10.0 mi ESE 8.1 mph - N/A   Clear
4:35 PM 96.4 °F - 52.5 °F 23% 29.84 in 10.0 mi SE 5.8 mph - N/A   Clear
4:55 PM 95.0 °F 92.7 °F 53.6 °F 25% 29.84 in 10.0 mi ESE 11.5 mph 16.1 mph N/A   Clear
5:15 PM 96.6 °F - 52.3 °F 22% 29.83 in 10.0 mi East 11.5 mph 23.0 mph N/A   Clear
5:35 PM 95.9 °F - 51.8 °F 22% 29.82 in 10.0 mi SE 11.5 mph 20.7 mph N/A   Clear
5:55 PM 94.6 °F - 50.4 °F 22% 29.81 in 10.0 mi SE 6.9 mph - N/A   Clear
6:15 PM 94.3 °F - 50.7 °F 23% 29.81 in 10.0 mi SE 19.6 mph 27.6 mph N/A   Clear
6:35 PM 93.0 °F - 50.7 °F 24% 29.80 in 10.0 mi SE 17.3 mph 25.3 mph N/A   Clear
6:55 PM 90.9 °F 89.7 °F 57.7 °F 33% 29.80 in 10.0 mi SE 23.0 mph 29.9 mph N/A   Clear
7:15 PM 90.9 °F 90.6 °F 60.8 °F 36% 29.80 in 10.0 mi SE 21.9 mph 29.9 mph N/A   Scattered Clouds
7:35 PM 89.6 °F 89.2 °F 60.3 °F 37% 29.81 in 10.0 mi ESE 21.9 mph 32.2 mph N/A   Scattered Clouds
7:55 PM 89.2 °F 88.4 °F 59.0 °F 36% 29.81 in 10.0 mi SE 21.9 mph 29.9 mph N/A   Scattered Clouds
8:15 PM 88.0 °F 87.1 °F 59.0 °F 37% 29.81 in 10.0 mi SE 19.6 mph 27.6 mph N/A   Mostly Cloudy
8:35 PM 86.9 °F 86.3 °F 59.2 °F 39% 29.81 in 7.0 mi SE 20.7 mph 26.5 mph N/A   Overcast
8:55 PM 85.8 °F 85.2 °F 59.0 °F 40% 29.81 in 10.0 mi SSE 21.9 mph 27.6 mph N/A   Mostly Cloudy
9:15 PM 84.6 °F 84.2 °F 59.0 °F 42% 29.81 in 10.0 mi SSE 23.0 mph 26.5 mph N/A   Scattered Clouds
9:35 PM 84.2 °F 83.8 °F 59.0 °F 42% 29.82 in 10.0 mi SSE 21.9 mph 26.5 mph N/A   Clear
9:55 PM 84.4 °F 83.8 °F 58.3 °F 41% 29.83 in 10.0 mi SSE 20.7 mph - N/A   Clear
10:15 PM 84.6 °F 83.7 °F 57.4 °F 39% 29.84 in 10.0 mi SSE 19.6 mph 27.6 mph N/A   Clear
10:35 PM 84.4 °F 83.5 °F 57.2 °F 39% 29.85 in 10.0 mi SSE 19.6 mph 27.6 mph N/A   Clear
10:55 PM 84.0 °F 83.3 °F 57.4 °F 40% 29.86 in 10.0 mi SSE 20.7 mph 27.6 mph N/A   Clear
11:15 PM 83.5 °F 82.9 °F 57.6 °F 41% 29.86 in 10.0 mi SSE 20.7 mph - N/A   Clear
11:35 PM 82.0 °F 82.1 °F 58.6 °F 45% 29.87 in 10.0 mi South 25.3 mph 34.5 mph N/A   Clear
11:55 PM 82.4 °F 82.6 °F 59.9 °F 46% 29.87 in 10.0 mi South 23.0 mph 33.4 mph N/A   Clear